THOR ABLESTAR DEB, 416

Orbit data source: Space-Track

THOR ABLESTAR DEB, 416 is space debris in LEO originally from a launch on Thu, 29 Jun 1961 UTC launched from the Air Force Eastern Test Range (AFETR). Debris objects in space refer to the collection of defunct objects orbiting the Earth. Examples of debris include non-operational satellites, rocket bodies, and fragments generated from explosions, collisions, or faulty payload assembly.

Loading next visibility...
Identifier
416, 1961-015ER
Orbit
LEO
Last TLE update
16 hours ago
Origin
Manufacturer
Unknown
Mission
Spacecraft
Bus & Motor
Unknown
Mass
Unknown
Launch date (UTC)
1961-06-29 (64 years ago)
Launch vehicle
Unknown
Launch site
Air Force Eastern Test Range (AFETR)
Object type
Payload
Rocket body
Debris
Shape & HBR
Unknown
Radar Cross Section
Small (<0.1 m²)

Expand to show TLE details & history

TLE from 16 hours ago
0 THOR ABLESTAR DEB
1 00416U 61015ER  25182.16983246  .00000475  00000-0  28509-3 0  9994
2 00416  66.4904  98.5932 0072299  40.3819 320.2605 14.14309619282202
Epoch: 2025-07-01T04:04Z
TLE epoch observation values (Epoch: 2025-07-01T04:04:33.524Z)
Latitude
-0.00003°
Longitude
117.98437°
Altitude
806.733 km
Speed
7.471 km/s
True Right ascension
06h 34m 22s
True Declination
0° 00' 00"
Sunlit
Object was in daylight at epoch
Visualization orbit readout
Latitude
-10.90931°
Longitude
-58.96329°
Altitude
894.737 km
Speed
7.381 km/s
Apparent Right ascension
19h 14m 22s
Apparent Declination
-24° 32' 37"
Sunlit
Object is in full shadow
Visualization observer readout
Local Sidereal Time
07:55:01
Azimuth
32.089° NE
Elevation
-72.417°
Doppler factor
1
Orbital elements
Apogee altitude
895.282 km
Perigee altitude
790.864 km
Semi-major axis
7,221.21 km
Eccentricity
0.00723
Inclination
66.4904°
RAAN
98.5932°
Arg. of periapsis
40.3819°
True anomaly
Unknown
Mean anomaly
320.2605°
Eccentric anomaly
Unknown
Mean motion
3.53694 °/min
Orbital period
101.78 mins
BSTAR
0.00028509
Loading maneuver chart data...
Loading SW <> Apogee altitude chart data...

THOR ABLESTAR DEB Visibility forecast

Observer location: undefined°, undefined°

Span
Click to sort rows by Start time (UTC) header in descending order
Start Az.
Max El. time (UTC)
Max El. Az.
Max El.
End time (UTC)
End Az.
8 mins2025-07-01 21:12:58.043Z253.048° W2025-07-01 21:16:58.043Z305.586° NW25.613°2025-07-01 21:20:58.043Z3.895° NNE
8 mins2025-07-02 04:22:58.043Z353.919° N2025-07-02 04:26:58.043Z61.43° ENE31.386°2025-07-02 04:30:58.043Z115.911° SE
8 mins2025-07-02 06:07:58.043Z299.86° NW2025-07-02 06:10:58.043Z254.36° W28.335°2025-07-02 06:15:58.043Z189.489° SSW
8 mins2025-07-02 19:14:58.043Z169.551° S2025-07-02 19:17:58.043Z114.801° SE33.054°2025-07-02 19:22:58.043Z44.148° NE
|